TimeMDT,TemperatureF,Dew PointF,Humidity,Sea Level PressureIn,VisibilityMPH,Wind Direction,Wind SpeedMPH,Gust SpeedMPH,PrecipitationIn,Events,Conditions,WindDirDegrees,DateUTC
12:53 AM,66.0,34.0,30,29.91,10.0,SW,6.9,-,N/A,,Clear,220,2013-08-17 06:53:00
1:53 AM,60.1,33.1,36,29.92,10.0,SSW,9.2,-,N/A,,Clear,210,2013-08-17 07:53:00
2:53 AM,60.1,32.0,35,29.93,10.0,SSW,9.2,-,N/A,,Clear,210,2013-08-17 08:53:00
3:53 AM,62.1,30.9,31,29.93,9.0,South,6.9,-,N/A,,Clear,190,2013-08-17 09:53:00
4:53 AM,52.0,35.1,53,29.95,8.0,SW,10.4,-,N/A,,Clear,220,2013-08-17 10:53:00
5:53 AM,59.0,30.9,35,29.95,10.0,SSW,8.1,-,N/A,,Clear,200,2013-08-17 11:53:00
6:53 AM,50.0,34.0,54,29.98,8.0,SW,9.2,-,N/A,,Clear,230,2013-08-17 12:53:00
7:53 AM,57.9,33.1,39,29.99,7.0,SSW,9.2,-,N/A,,Clear,200,2013-08-17 13:53:00
8:53 AM,64.0,35.1,34,29.99,7.0,SSW,8.1,-,N/A,,Clear,200,2013-08-17 14:53:00
9:53 AM,69.1,39.9,35,30.01,8.0,WSW,5.8,-,N/A,,Clear,250,2013-08-17 15:53:00
10:53 AM,73.0,39.0,29,29.99,10.0,Calm,Calm,-,N/A,,Clear,0,2013-08-17 16:53:00
11:53 AM,79.0,41.0,26,29.98,10.0,NNE,5.8,-,N/A,,Clear,20,2013-08-17 17:53:00
12:53 PM,82.9,39.9,22,29.94,10.0,North,5.8,-,N/A,,Clear,10,2013-08-17 18:53:00
1:53 PM,84.0,37.9,19,29.93,10.0,North,4.6,-,N/A,,Clear,10,2013-08-17 19:53:00
2:53 PM,89.1,33.1,14,29.89,10.0,Calm,Calm,-,N/A,,Clear,0,2013-08-17 20:53:00
3:53 PM,90.0,28.9,11,29.86,10.0,SSW,9.2,-,N/A,,Clear,210,2013-08-17 21:53:00
4:53 PM,84.0,37.9,19,29.87,10.0,North,9.2,-,N/A,,Clear,10,2013-08-17 22:53:00
5:53 PM,84.9,36.0,17,29.85,10.0,North,3.5,-,N/A,,Clear,10,2013-08-17 23:53:00
6:53 PM,84.9,35.1,17,29.86,10.0,East,4.6,-,N/A,,Clear,90,2013-08-18 00:53:00
7:53 PM,79.0,34.0,20,29.84,10.0,ESE,4.6,-,N/A,,Clear,120,2013-08-18 01:53:00
8:53 PM,72.0,30.9,22,29.86,10.0,Calm,Calm,-,N/A,,Clear,0,2013-08-18 02:53:00
9:53 PM,64.0,46.9,54,29.89,10.0,WNW,5.8,16.1,N/A,,Clear,300,2013-08-18 03:53:00
10:53 PM,72.0,41.0,33,29.88,10.0,NE,6.9,-,N/A,,Clear,50,2013-08-18 04:53:00
11:53 PM,68.0,39.0,35,29.90,10.0,Calm,Calm,-,N/A,,Clear,0,2013-08-18 05:53:00